Weather Roundup
Issued by NWS Chicago, IL

Home | Current Version | Previous Version | Text Only | Print | Product List | Glossary On
Versions: 1 2 3 4 5 6 7 8 9 10 11 12 13 14 15 16 17 18 19 20 21 22 23 24 25 26 27 28 29 30 31 32 33 34 35 36 37 38 39 40 41 42 43 44 45 46 47 48 49 50
000
NZUS59 KLOT 190603
HRRLOT

CHICAGO AREA WEATHER ROUNDUP
NATIONAL WEATHER SERVICE CHICAGO/ROMEOVILLE IL
100 AM CDT SAT AUG 19 2017

NOTE: "FAIR" INDICATES FEW OR NO CLOUDS BELOW 12,000 FEET WITH NO
SIGNIFICANT WEATHER AND/OR OBSTRUCTIONS TO VISIBILITY.

* THESE STATIONS ARE NOT UNDER NWS QUALITY CONTROL. THEY ALSO MAY NOT
  REPORT WEATHER SUCH AS PRECIPITATION OR FOG.

ILZ005-006-012>014-019>023-190700-
NORTHEAST ILLINOIS

CITY           SKY/WX    TMP DP  RH WIND       PRES   REMARKS
OHARE          MOCLDY    70  59  68 NW8       29.89S
6HR MIN TEMP:  70; 6HR MAX TEMP:  79;

MIDWAY         CLOUDY    73  60  63 N10       29.88F
6HR MIN TEMP:  73; 6HR MAX TEMP:  80;

AURORA         MOCLDY    66  63  90 NW3       29.91S
6HR MIN TEMP:  66; 6HR MAX TEMP:  75;

LANSING*       CLOUDY    69  61  76 W3        29.89S
JOLIET*        CLOUDY    72  64  75 N5        29.90S
WAUKEGAN       PTCLDY    62  61  96 W3        29.89S
6HR MIN TEMP:  62; 6HR MAX TEMP:  75;

DUPAGE AIRPORT MOCLDY    68  62  81 NW6       29.90R
6HR MIN TEMP:  68; 6HR MAX TEMP:  76;

WHEELING       MOCLDY    67  62  84 NW7       29.91S
6HR MIN TEMP:  67; 6HR MAX TEMP:  78;

MORRIS*        CLOUDY    68  63  83 N3        29.90R
NORTHERLY ISL    N/A     72  57  59 NW9         N/A
$$

WIZ051-052-058>065-066-070>072-190700-
SOUTHEAST WISCONSIN

CITY           SKY/WX    TMP DP  RH WIND       PRES   REMARKS
MILWAUKEE      MOCLDY    69  61  75 NW8       29.90R
6HR MIN TEMP:  69; 6HR MAX TEMP:  77;

KENOSHA*       CLEAR     61  58  90 W5        29.91R
RACINE*        PTCLDY    64  60  87 W6        29.91S
$$

INZ001>003-010>013-019-020-190700-
NORTHWEST INDIANA

CITY           SKY/WX    TMP DP  RH WIND       PRES   REMARKS
GARY*          CLOUDY    73  63  69 N8        29.89S
6HR MIN TEMP:  68; 6HR MAX TEMP:  80;

MICHIGAN CITY* NOT AVBL
RENSSELAER*    NOT AVBL
VALPARAISO     LGT RAIN  69  65  86 S8        29.89S
$$

LMZ740>746-190700-
SOUTHERN LAKE MICHIGAN

STATION/POSITION TIME  SKY/WX   TEMP WIND        PRES    VSBY
                                AIR  DIR/SP/G
                 (UTC)          (F)  (DEG/KT/KT) (MB)    (MI)
HARRISON CRIB    0540            73  330/ 16/ 17   N/A
BURNHAM HARBOR   NOT AVBL
CALUMET HARBOR   0530            74  320/  6/  9 1011.4S
BURNS HARBOR     0540            74  340/ 11/ 16 1012.2S
MICHIGAN CITY    0540            70  190/  3/  4   N/A
$$

ABBREVIATIONS USED IN REMARKS
   TC - TEMPERATURE IN CELSIUS
  WCI - WIND CHILL INDEX
   HX - HEAT INDEX
  VSB - VISIBILITY
$$



USA.gov is the U.S. government's official web portal to all federal, state and local government web resources and services.